Regional Weather Roundup
Issued by NWS

Home | Current Version | Previous Version | Graphics & Text | Print | Product List | Glossary On
Versions: 1 2 3 4 5 6 7 8 9 10 11 12 13 14 15 16 17 18 19 20 21 22 23 24 25 26 27 28 29 30 31 32 33 34 35 36 37 38 39 40 41 42 43 44 45 46 47 48 49 50
000
ASUS43 KMPX 302101
RWRMN
WEATHER ROUNDUP FOR MINNESOTA
NATIONAL WEATHER SERVICE TWIN CITIES/CHANHASSEN MN
400 PM CDT TUE SEP 30 2014


NOTE: "FAIR" INDICATES FEW OR NO CLOUDS BELOW 12,000 FEET WITH NO
SIGNIFICANT WEATHER AND/OR OBSTRUCTIONS TO VISIBILITY. N/A MEANS
CURRENT SKY AND/OR WEATHER CONDITIONS ARE NOT AVAILABLE.

MNZ060>063-068>070-302200-
   Twin Cities Metro

CITY           SKY/WX    TMP DP  RH WIND       PRES   REMARKS
TWIN CITIES    CLOUDY    58  44  60 E16       29.91F
ST PAUL        PTSUNNY   57  44  62 E12       29.94F
CRYSTAL        CLOUDY    58  43  57 E13G20    29.90F
BLAINE         PTSUNNY   57  46  67 E13G20    29.91F
LAKEVILLE      CLOUDY    55  45  67 E14       29.91F
EDEN PRAIRIE   CLOUDY    57  45  64 E12G21    29.90F
SOUTH ST PAUL  CLOUDY    58  43  58 E10G17    29.92F
LAKE ELMO      FAIR      55  45  67 E9        29.96F
$$
MNZ001>005-007-008-013>017-022>024-027-028-302200-
   Northwest Minnesota

CITY           SKY/WX    TMP DP  RH WIND       PRES   REMARKS
BEMIDJI        PTSUNNY   55  43  63 SE18      29.86F
HALLOCK        PTSUNNY   61  45  55 SE14G24   29.76F
ROSEAU         SUNNY     63  45  51 SE17G24   29.83F
WARROAD        SUNNY     61  46  59 E13       29.85F
THIEF RVR FALL CLOUDY    57  43  58 E18       29.78F
CROOKSTON      PTSUNNY   63  45  51 SE16      29.75F
FOSSTON        PTSUNNY   57  43  58 SE13G21   29.80F
DETROIT LAKES  CLOUDY    57  43  58 SE20G29   29.78F
PARK RAPIDS    CLOUDY    55  42  61 SE15G23   29.85F
MAHNOMEN       MOCLDY    58  43  56 SE16G23   29.77F
$$
MNZ006-009>011-018-025>026-302200-
   North Central Minnesota

CITY           SKY/WX    TMP DP  RH WIND       PRES   REMARKS
BAUDETTE       SUNNY     57  42  57 SE14G21   29.88F
FLAG ISLAND    SUNNY     55  45  67 SE10G16   29.87F
INTL FALLS     SUNNY     57  42  57 E14       29.93F
WASKISH        SUNNY     57  45  62 E13       29.88F
BIG FORK       SUNNY     57  45  62 SE6       29.93F
LONGVILLE      PTSUNNY   55  45  67 SE6G16    29.90F
GRAND RAPIDS   MOSUNNY   54  39  58 SE10      29.93F
CRANE LAKE     SUNNY     59  41  51 SE3       29.97F
ORR            SUNNY     61  37  41 SE12G20   29.93F
COOK           SUNNY     57  43  58 SE9       29.96F
WALKER         FAIR      54  42  63 SE6G18    29.89F
$$
MNZ012-019>021-037-302200-
   Northeast Minnesota

CITY           SKY/WX    TMP DP  RH WIND       PRES   REMARKS
DULUTH         PTSUNNY   47  41  80 E13       30.00F
ELY            SUNNY     55  39  54 E9        29.99F
HIBBING        MOSUNNY   55  43  63 SE12      29.96F
EVELETH        SUNNY     54  41  62 SE8       29.98F
DULUTH HARBOR  MOSUNNY   50  45  81 NE20      30.02F
TWO HARBORS    CLOUDY    45  39  81 E15G23    30.01F
SILVER BAY     SUNNY     45  43  93 E10G17    30.03F
GRAND MARAIS     N/A     50  39  66 E12       30.07F
G MARAIS ARPRT SUNNY     48  34  57 SE5       30.06F
$$
MNZ029>031-032-039>041-046>048-054>057-064-302200-
   West Central Minnesota

CITY           SKY/WX    TMP DP  RH WIND       PRES   REMARKS
FERGUS FALLS   PTSUNNY   57  45  62 SE21      29.77F
WHEATON        LGT RAIN  50  46  87 SE18G25   29.75F
MORRIS         PTSUNNY   55  46  71 SE15G23   29.77F
ALEXANDRIA     PTSUNNY   55  45  68 E16G30    29.83F
ELBOW LAKE     CLOUDY    55  47  74 E17G25    29.75F
WADENA         CLOUDY    57  43  58 E16       29.83F
GLENWOOD       PTSUNNY   55  46  71 E21       29.82F
APPLETON       CLOUDY    55  46  71 SE20G26   29.76F
BENSON         PTSUNNY   57  46  67 SE15G23   29.80S
ORTONVILLE     CLOUDY    52  48  87 SE13G23   29.74F
MADISON        CLOUDY    59  50  72 SE17G25   29.76F
WILLMAR        FAIR      59  45  58 E24       29.83F
$$
MNZ033>034-036-042>043-049>051-058-059-302200-
   Central Minnesota

CITY           SKY/WX    TMP DP  RH WIND       PRES   REMARKS
ST CLOUD       PTSUNNY   58  43  57 E10G20    29.89F
SAUK CENTRE    CLOUDY    55  44  65 SE16G22   29.86F
PAYNESVILLE    PTSUNNY   54  44  70 E16       29.87F
AITKIN         PTSUNNY   59  45  58 SE8G17    29.92F
PINE RIVER     PTSUNNY   54  45  71 E12       29.92F
BRAINERD       PTSUNNY   51  42  71 E8G17     29.91F
STAPLES        PTSUNNY   55  43  62 SE12G18   29.87F
LONG PRAIRIE   PTSUNNY   52  43  71 E10G17    29.86F
LITTLE FALLS   PTSUNNY   54  41  62 E15       29.88F
LITCHFIELD     PTSUNNY   57  48  72 SE14      29.88F
BUFFALO        PTSUNNY   57  42  58 E12       29.91S
MAPLE LAKE     PTSUNNY   58  47  66 E14       29.90F
$$
MNZ037-044-045-052-053-302200-
   East Central Minnesota

CITY           SKY/WX    TMP DP  RH WIND       PRES   REMARKS
PRINCETON      PTSUNNY   57  45  62 E9G16     29.92F
MORA           PTSUNNY   54  41  62 SE7       29.96F
CAMBRIDGE      PTSUNNY   57  45  62 E10       29.91F
RUSH CITY      PTSUNNY   57  44  61 E6        29.95F
MOOSE LAKE     MOSUNNY   59  43  55 E5        29.94F
HINCKLEY       FAIR      55  43  62 E8        29.96F
CLOQUET        PTSUNNY   48  41  76 E10G17    29.98F
MCGREGOR       PTSUNNY   55  45  67 E13G21    29.95F
$$
MNZ071>073-080-081-089-090-097-098-302200-
   Southwest Minnesota

CITY           SKY/WX    TMP DP  RH WIND       PRES   REMARKS
MONTEVIDEO     CLOUDY    57  48  72 S13G22    29.81R
GRANITE FALLS  CLOUDY    58  49  70 E12G20    29.82R
CANBY          CLOUDY    59  53  79 SE14G22   29.76F
MARSHALL       CLOUDY    63  52  67 S25       29.78F
REDWOOD FALLS  PTSUNNY   60  49  66 SE20G30   29.82F
OLIVIA         PTSUNNY   59  48  67 SE14G24   29.82F
PIPESTONE      PTSUNNY   63  55  77 S14G25    29.77R
WINDOM         PTSUNNY   63  54  72 SE13      29.85R
WORTHINGTON    CLOUDY    59  55  88 SE10G17   29.85R
JACKSON        CLOUDY    63  54  72 SE14      29.86S
TRACY          CLOUDY    62  55  76 SE17G23   29.82S
SLAYTON        LGT RAIN  60  55  84 SE18      29.81F
$$
MNZ065>067-074>077-082>085-091>093-302200-
   South Central Minnesota

CITY           SKY/WX    TMP DP  RH WIND       PRES   REMARKS
MANKATO        PTSUNNY   61  46  59 SE17      29.89S
NEW ULM        PTSUNNY   61  52  72 SE15      29.86F
ST JAMES       PTSUNNY   64  52  63 E12G17    29.87S
FAIRMONT       PTSUNNY   64  52  63 SE15      29.86F
GLENCOE        CLOUDY    59  45  58 SE15      29.89S
FARIBAULT      CLOUDY    61  46  59 E10       29.91F
OWATONNA       CLOUDY    59  46  63 E14G20    29.90F
WASECA         CLOUDY    59  45  58 E10G18    29.91F
ALBERT LEA     PTSUNNY   63  52  67 SE16      29.90F
$$
MNZ078>079-086>088-094>096-302200-
   Southeast Minnesota

CITY           SKY/WX    TMP DP  RH WIND       PRES   REMARKS
ROCHESTER      CLOUDY    56  47  71 E13       29.96F
RED WING       PTSUNNY   57  43  58 SE9       29.95F
STANTON        CLOUDY    59  45  60 E9        29.91F
DODGE CENTER   CLOUDY    57  46  67 SE15      29.93F
WINONA         CLOUDY    54  45  71 SE10      29.99F
AUSTIN         CLOUDY    61  48  63 SE10G16   29.92F
PRESTON        CLOUDY    55  45  68 E12       29.96F
$$
ABBREVIATIONS USED IN REMARKS
   TC - TEMPERATURES IN CELSIUS
  WCI - WIND CHILL INDEX
   HX - HEAT INDEX
  VSB - VISIBILITY
$$



USA.gov is the U.S. government's official web portal to all federal, state and local government web resources and services.